Zurück zum Katalog

CZ-6A DEB

AktivPO
NORAD 60643·DEBRIS·🇨🇳 China

Gestartet Aug 6, 2024 von Taiyuan Satellite Launch Center

Loading…

Nächste Überflüge (nächste 24 Stunden)

TLE

AktuellSource: Space-Track

Epoche: Sep 13, 2026, 17:33 UTC

1 60643U 24140AU  26256.73163151  .00002804  00000-0  78222-3 0  9996
2 60643  88.9659 258.6679 0050936  44.4773 316.0503 14.45295678110541

Verfolge CZ-6A DEB in Echtzeit mit AllMySat

Download on the App Store